This is the latest recevied weather packets stored in our database for station/object NR0A-4. If no packets are shown the sender has not sent any weather packets the latest 10 day(s).
| Time | Temp. | Humidity | Pressure | Rain* | Wind** | Luminosity | Snow |
|---|---|---|---|---|---|---|---|
| 1777561204 | 8.89° C | 72% | 1019.7 hPa | 0 mm | - | 469 W/m² | - |
| 1777560904 | 8.33° C | 73% | 1019.8 hPa | 0 mm | - | 415 W/m² | - |
| 1777560604 | 8.33° C | 72% | 1019.8 hPa | 0 mm | - | 392 W/m² | - |
| 1777560305 | 8.33° C | 74% | 1019.6 hPa | 0 mm | - | 403 W/m² | - |
| 1777560004 | 8.33° C | 73% | 1019.6 hPa | 0 mm | - | 343 W/m² | - |
| 1777559704 | 8.33° C | 73% | 1019.5 hPa | 0 mm | - | 350 W/m² | - |
| 1777559405 | 8.33° C | 73% | 1019.6 hPa | 0 mm | - | 313 W/m² | - |
| 1777559105 | 7.78° C | 76% | 1019.5 hPa | 0 mm | - | 381 W/m² | - |
| 1777558804 | 7.78° C | 75% | 1019.5 hPa | 0 mm | - | 462 W/m² | - |
| 1777558504 | 7.22° C | 76% | 1019.4 hPa | 0 mm | - | 315 W/m² | - |
| 1777558205 | 7.22° C | 75% | 1019.3 hPa | 0 mm | - | 279 W/m² | - |
| 1777557904 | 7.22° C | 76% | 1019.3 hPa | 0 mm | - | 283 W/m² | - |
| 1777557604 | 7.22° C | 76% | 1019.3 hPa | 0 mm | - | 285 W/m² | - |
| 1777557304 | 7.22° C | 76% | 1019.2 hPa | 0 mm | - | 320 W/m² | - |
| 1777557005 | 7.22° C | 77% | 1019.2 hPa | 0 mm | - | 320 W/m² | - |
| 1777556704 | 6.67° C | 78% | 1019.2 hPa | 0 mm | - | 285 W/m² | - |
| 1777556405 | 6.67° C | 78% | 1019.1 hPa | 0 mm | - | 309 W/m² | - |
| 1777556104 | 6.67° C | 77% | 1019.1 hPa | 0 mm | - | 179 W/m² | - |
| 1777555804 | 6.67° C | 77% | 1019.1 hPa | 0 mm | - | 299 W/m² | - |
| 1777555504 | 6.67° C | 77% | 1019 hPa | 0 mm | - | 258 W/m² | - |
| 1777555204 | 6.67° C | 78% | 1019 hPa | 0 mm | - | 148 W/m² | - |
| 1777554904 | 6.67° C | 78% | 1018.9 hPa | 0 mm | - | 220 W/m² | - |
| 1777554604 | 6.11° C | 78% | 1018.9 hPa | 0 mm | - | 221 W/m² | - |
| 1777554304 | 6.11° C | 79% | 1018.8 hPa | 0 mm | - | 206 W/m² | - |
| 1777554004 | 6.11° C | 80% | 1018.8 hPa | 0 mm | - | 193 W/m² | - |
* Rain latest hour (hover to see other rain measurements)
** Current wind speed in m/s (hover to see current wind gust speed)